Wind_Speed
5 3 2 4 6 6 8 8 7 5 4 5 3 3 5 4 2 3 2 2 3 3 2 3 5 4 0 2 2 2 5 12 21 23 25 26 25 28 26 25 27 28 31 32 31 30 28 27 25 23 20 19 19 18 18 18 18 18 18 18 17 16 16 16 17 17 16 16 15 15 15 14 14 14 13 12 11 9 8 8 8 7 5 4 4 6
3 4 5 7 8 9 8 7 7 4 3 5 4 4 4 3 2 3 3 6 5 2 1 3 5 3 2 4 4 1 2 10 18 22 24 25 26 28 26 26 28 28 30 32 32 32 31 29 26 23 21 21 21 19 18 18 19 19 18 19 18 17 17 17 17 17 16 15 14 14 14 13 13 12 12 11 10 8 8 8 7 6 5 4 5 7
1 4 8 9 7 6 5 4 6 5 4 5 4 5 4 3 3 4 5 7 3 1 2 4 6 5 2 3 6 5 3 6 13 23 28 27 26 27 27 29 29 28 28 31 34 33 32 30 27 24 22 22 21 18 17 18 19 19 19 19 19 18 18 17 17 17 17 15 14 12 12 12 11 11 10 9 9 8 8 8 7 7 6 5 7 8
2 5 8 8 6 5 4 4 6 4 3 4 4 5 4 5 5 2 5 7 0 1 3 4 4 3 1 3 6 8 7 4 7 19 29 29 28 31 31 32 32 28 28 31 33 34 33 31 28 25 24 23 22 18 17 18 19 19 19 19 19 18 18 18 18 17 16 15 14 12 11 11 10 10 11 11 10 9 8 8 8 8 7 7 8 8
5 8 6 2 4 6 4 3 5 4 2 3 6 6 5 8 5 3 7 8 3 2 3 6 2 1 3 5 6 6 6 4 4 13 24 27 28 32 33 33 34 31 29 31 33 34 34 32 29 26 25 25 22 19 18 18 19 19 19 18 18 18 18 19 19 17 17 15 15 14 13 12 12 12 12 13 13 11 10 8 8 9 8 8 9 10
8 10 6 1 2 5 4 3 4 5 3 3 6 8 8 11 6 9 12 9 4 2 3 6 3 2 5 8 8 4 3 5 4 8 19 24 25 28 30 30 31 32 31 31 32 35 35 32 29 27 26 26 23 19 17 17 18 18 19 18 17 18 18 18 18 18 18 16 15 15 15 15 15 14 14 14 13 12 10 8 8 9 9 9 9 9
5 6 5 4 5 5 4 4 5 6 5 2 6 9 8 10 10 13 15 8 3 3 4 5 4 2 4 7 9 6 4 6 4 5 14 23 25 27 31 30 28 31 33 33 33 35 36 33 30 28 27 25 22 19 17 18 18 19 19 17 16 17 17 17 17 19 19 17 15 14 14 15 14 14 14 12 12 10 9 8 8 8 10 10 8 7
3 3 4 6 6 4 4 5 6 8 6 4 6 9 10 11 11 14 12 5 2 2 2 2 1 2 3 6 9 8 6 6 5 6 9 19 24 26 32 32 28 32 35 35 37 37 37 34 31 29 26 23 21 19 19 19 19 19 19 17 16 17 18 18 18 20 20 19 17 15 14 14 13 12 12 11 11 10 8 9 9 9 10 10 9 7
2 3 5 7 6 5 6 6 8 10 6 3 2 7 9 9 9 9 5 2 2 4 2 4 2 1 3 4 5 8 8 8 9 10 9 14 22 25 31 33 29 32 36 37 39 39 37 34 31 28 25 22 21 20 19 19 19 20 20 18 18 19 20 19 19 21 21 19 18 17 15 15 13 11 10 10 10 10 9 9 10 10 10 10 9 8
3 7 8 6 5 5 8 8 9 10 5 4 13 13 10 10 9 7 5 4 3 2 2 7 6 2 2 3 4 6 9 11 10 9 9 14 21 24 30 33 29 31 37 39 40 40 37 34 31 28 25 22 21 21 19 18 19 20 21 20 20 21 21 20 20 22 22 20 19 17 16 16 15 13 12 11 11 11 11 10 10 10 10 10 9 9
8 13 10 5 7 8 9 9 7 10 8 11 14 12 11 8 6 6 4 5 3 3 3 6 9 2 2 3 6 8 10 11 9 8 9 14 19 22 27 32 30 30 37 40 40 41 38 34 31 28 27 24 22 22 21 19 20 21 22 22 21 22 22 21 22 23 23 21 20 18 16 15 15 14 13 13 13 13 13 12 11 11 11 11 10 10
6 8 6 7 13 12 7 3 2 11 13 11 7 7 8 5 4 5 3 3 1 4 3 2 6 3 2 4 5 9 10 11 11 10 10 13 18 21 24 30 31 31 36 40 40 41 40 37 35 31 29 26 24 24 23 21 21 22 23 23 22 23 24 23 23 24 24 22 21 19 17 15 14 14 14 14 14 14 14 13 13 12 12 12 11 11
4 5 4 4 11 11 7 3 4 5 5 7 6 6 6 3 3 3 1 1 2 4 2 1 4 3 5 6 5 8 9 10 14 16 16 18 22 24 23 26 31 32 35 40 41 41 41 40 37 34 31 28 26 25 23 22 23 24 24 24 24 24 25 25 24 24 25 23 21 20 18 16 15 14 14 15 15 15 14 14 13 13 13 12 12 12
4 5 3 1 5 9 9 6 4 2 1 6 8 6 5 3 2 2 2 2 2 3 1 3 5 3 4 5 5 8 10 14 18 20 22 24 26 28 25 22 27 32 35 40 42 42 42 41 38 35 32 30 27 24 22 22 23 25 25 25 25 25 25 25 25 25 25 24 22 20 19 17 16 15 14 15 16 15 15 14 14 13 13 12 11 10
0 5 3 4 3 5 9 9 10 7 4 4 3 3 5 5 4 4 4 3 2 1 1 5 5 4 2 3 3 5 9 16 20 21 24 26 28 32 29 22 23 30 35 40 43 43 43 42 39 36 33 30 28 25 23 22 24 26 26 26 26 25 26 26 25 25 25 25 23 21 20 19 18 17 16 17 17 16 15 16 15 15 13 12 11 10
2 5 7 6 4 6 7 8 12 11 4 1 3 2 3 5 5 4 2 3 4 2 2 4 3 3 3 3 3 3 6 13 18 19 22 25 28 31 32 26 23 27 34 40 43 44 43 42 40 37 35 31 29 26 24 23 25 26 26 26 26 26 26 26 25 25 25 25 24 23 22 21 20 19 18 18 17 17 16 16 16 16 14 13 13 12
0 5 6 5 3 5 8 10 13 10 4 2 2 4 5 3 6 5 2 2 4 3 1 2 3 3 2 3 3 1 4 9 12 15 19 24 28 31 34 33 26 25 33 40 43 44 43 42 41 38 35 33 30 27 25 24 25 26 26 26 26 26 26 26 26 26 25 25 25 25 23 22 21 21 20 19 18 17 17 16 16 15 15 14 14 14
2 5 5 2 3 2 9 14 9 6 7 6 4 6 3 2 4 5 2 3 3 1 2 2 3 4 2 2 2 1 5 7 9 12 15 20 26 29 33 37 33 27 31 38 42 43 43 43 42 39 36 34 30 27 25 24 24 24 25 25 26 26 26 27 27 26 26 26 26 25 24 22 22 21 20 19 17 17 17 17 16 15 15 15 15 15
2 3 6 1 1 3 4 11 4 3 5 8 5 4 4 2 1 2 2 2 2 1 2 2 3 3 4 4 3 5 8 8 9 10 12 16 22 27 32 37 35 29 30 36 40 42 43 43 42 40 37 34 31 27 25 24 24 24 24 24 25 25 26 26 27 26 26 26 25 25 24 23 22 21 19 19 18 17 18 18 17 16 16 15 16 16
2 1 5 5 2 1 2 5 3 4 2 5 2 1 2 2 4 3 2 3 3 2 1 2 2 3 5 5 7 10 10 9 10 10 10 15 23 29 31 35 36 31 30 35 38 40 41 42 42 40 37 34 31 29 26 25 25 26 25 25 25 25 25 26 26 27 26 26 25 25 24 23 22 21 19 18 18 18 19 18 17 16 16 16 16 16
0 3 2 6 6 2 1 1 5 5 4 5 2 1 1 1 2 3 2 2 3 3 2 1 2 5 5 3 7 10 10 10 11 10 10 16 23 27 29 33 35 33 32 35 38 39 39 39 39 39 37 34 31 29 28 26 26 26 26 25 25 25 26 26 27 26 26 26 25 25 24 23 22 21 19 18 18 18 19 19 18 17 16 15 15 16
1 2 2 3 5 1 3 4 5 7 6 6 3 3 3 2 3 3 0 2 2 4 3 3 2 6 5 2 4 7 7 8 11 12 12 16 21 24 25 29 33 33 33 36 38 39 40 40 40 39 37 35 33 31 29 28 27 27 26 25 25 26 27 27 27 27 26 25 25 25 24 22 21 21 19 19 18 18 19 19 18 17 15 16 18 18
2 3 2 1 2 4 7 6 3 4 5 5 2 2 3 3 4 5 3 3 1 2 1 3 1 5 5 2 1 4 5 8 13 14 13 15 20 22 23 27 30 31 32 34 37 38 38 39 39 39 38 37 35 33 32 30 28 28 27 25 25 26 27 26 26 26 26 25 25 24 23 22 21 20 20 19 19 19 18 18 17 16 17 19 19 17
1 3 3 3 4 5 7 6 4 3 6 4 2 2 2 2 3 4 4 3 3 2 2 2 1 5 5 3 1 3 4 8 13 15 15 15 18 21 24 26 29 31 30 32 35 36 36 36 36 35 37 37 36 34 33 32 30 29 28 26 25 25 26 26 26 26 26 26 24 23 23 23 22 21 21 20 19 19 17 16 16 16 17 17 15 13
2 2 3 3 4 6 6 7 7 6 4 2 3 4 3 1 3 4 1 3 2 3 4 4 3 5 4 3 3 4 4 5 9 15 17 17 19 23 25 26 29 31 30 29 32 34 33 34 35 34 34 37 38 36 35 33 32 31 29 27 25 24 25 26 26 26 26 26 25 23 23 23 22 22 21 20 20 19 17 15 16 16 15 14 13 13
2 1 3 4 3 2 2 3 3 4 3 2 3 6 7 4 3 3 2 4 1 3 4 4 4 5 5 3 4 3 4 4 5 11 16 18 22 25 26 27 28 30 28 24 26 30 31 31 34 35 35 36 37 38 37 34 31 31 31 28 25 23 24 26 26 26 26 26 25 24 23 23 22 22 22 21 20 19 17 16 16 16 15 14 14 14
3 2 4 5 5 4 4 4 4 2 1 3 5 7 8 7 3 3 5 4 4 3 2 5 5 1 5 3 2 2 3 3 3 8 12 16 20 24 27 29 29 30 30 27 26 27 29 30 32 35 37 36 34 35 36 35 32 31 32 30 27 24 24 26 26 26 26 26 26 25 24 23 23 22 21 21 20 19 18 17 17 16 15 15 15 14
4 4 5 5 1 4 6 4 0 4 5 4 5 7 9 8 6 5 3 3 5 6 3 8 5 3 5 4 5 4 4 4 3 7 11 14 18 22 25 28 29 30 31 30 30 29 30 31 32 34 36 36 34 33 34 35 33 32 32 31 29 27 25 24 26 27 26 26 25 25 24 23 22 22 21 20 19 19 18 18 17 17 17 15 15 15
5 3 2 3 2 6 3 2 3 5 5 5 8 9 10 9 8 7 2 3 2 5 6 6 6 4 5 2 5 4 5 5 4 6 9 13 15 19 22 25 28 29 29 29 29 29 30 32 34 35 36 37 36 35 34 32 31 32 33 30 29 30 27 24 26 28 27 26 25 24 23 22 22 21 19 19 18 19 19 19 18 17 17 15 14 15
5 2 1 4 2 6 7 6 6 7 7 7 10 11 10 8 8 7 5 4 2 2 5 3 7 2 4 0 4 4 7 8 7 6 7 10 12 15 19 22 24 27 28 28 28 28 28 29 32 36 36 36 36 35 33 31 30 33 35 30 28 31 30 26 24 27 27 26 24 21 20 20 20 20 18 18 18 18 20 20 19 18 17 15 14 14
4 3 2 4 4 6 7 4 5 7 7 8 11 13 13 11 9 10 9 7 5 4 5 3 6 4 5 4 7 9 11 10 9 8 8 9 10 13 15 18 20 23 26 27 27 27 28 28 30 34 35 34 34 34 32 31 31 34 35 32 29 30 31 28 25 25 26 26 24 22 21 21 21 19 18 18 18 18 19 19 19 18 17 15 15 14
4 3 1 4 4 3 6 4 4 4 6 9 12 14 14 11 8 7 8 8 6 4 5 5 4 3 4 4 9 12 13 12 9 8 8 7 9 11 13 14 17 20 23 26 26 25 26 28 30 31 33 33 33 34 34 32 33 34 35 34 32 31 32 30 27 25 25 25 25 23 21 23 23 21 20 19 19 19 19 19 19 18 17 17 17 16
2 3 2 3 3 3 6 4 3 4 6 5 6 7 7 6 5 6 8 11 10 4 1 2 1 2 2 4 7 9 11 11 9 7 6 6 8 10 11 13 15 17 19 24 25 24 22 23 26 27 29 30 32 35 35 34 35 35 35 35 34 31 30 30 28 27 25 24 25 24 23 24 25 24 22 21 20 20 20 20 20 19 18 18 18 17
2 4 3 3 4 2 6 4 4 5 3 4 4 1 3 3 6 8 9 12 13 7 4 2 3 4 5 6 8 9 10 10 9 8 6 5 6 7 9 11 13 14 15 17 21 24 23 22 23 26 28 30 31 31 33 34 35 34 35 35 33 29 28 28 28 29 28 26 25 25 24 25 27 27 25 23 23 22 21 20 19 19 18 18 18 18
3 4 1 1 4 2 2 4 3 1 3 6 4 3 3 2 8 9 10 11 12 10 7 7 8 8 9 10 13 17 16 14 12 11 8 6 5 6 7 8 10 12 13 15 18 22 24 25 26 25 26 29 28 27 28 30 31 32 33 33 30 27 27 28 29 31 31 28 26 24 24 27 29 29 28 25 24 23 22 20 19 18 19 21 21 20
4 3 1 2 2 2 2 4 1 5 5 4 5 4 4 3 4 5 7 9 9 9 6 7 8 9 12 14 15 16 17 17 16 13 9 7 4 4 5 6 7 8 10 11 15 17 18 22 26 27 26 27 28 28 28 28 30 31 30 29 28 25 24 24 27 31 32 29 27 24 24 27 30 30 29 28 27 25 23 21 20 20 20 22 23 22
5 3 1 2 1 2 4 2 1 2 3 4 3 2 2 3 2 0 2 2 5 6 5 6 7 8 11 13 12 11 13 15 15 12 9 7 4 2 3 4 3 4 3 5 9 10 9 13 22 27 28 28 28 29 28 27 29 29 26 25 24 23 22 22 26 31 31 29 27 26 25 27 30 30 30 30 28 25 24 23 22 21 21 22 23 23
3 2 2 3 1 2 4 3 2 2 1 4 4 3 4 5 5 3 2 1 4 4 3 6 6 5 7 9 8 8 10 10 6 4 5 5 4 2 1 2 3 4 4 3 4 5 5 9 17 25 28 28 27 27 27 27 27 26 25 23 22 22 24 24 28 31 30 27 26 26 26 27 30 31 29 27 25 23 22 22 21 21 21 22 23 23
6 3 3 5 2 2 4 3 2 2 3 5 6 7 11 13 8 1 3 2 4 3 3 6 6 4 5 5 3 5 7 4 2 4 2 1 2 3 3 3 3 4 5 4 4 4 5 8 13 18 22 25 27 27 26 28 27 26 25 24 24 24 25 26 29 29 27 25 25 25 26 28 30 31 29 27 26 23 22 21 19 20 21 22 23 23
6 4 4 4 2 3 4 2 2 2 3 4 5 9 15 15 7 4 3 4 4 6 8 9 9 7 7 6 5 5 4 2 4 7 6 4 3 3 3 2 2 4 4 5 5 6 8 8 9 11 13 19 24 24 24 25 26 27 27 27 26 26 27 28 28 24 23 24 25 25 26 27 27 27 26 25 24 23 22 20 19 19 19 19 20 21
4 3 2 3 3 3 4 2 1 3 3 4 8 13 15 10 3 4 2 6 5 8 12 13 12 11 9 7 5 4 3 4 7 10 10 8 7 8 7 7 7 7 7 7 8 9 10 10 10 9 10 13 17 19 19 18 18 20 22 22 23 24 24 24 22 21 22 23 22 20 20 20 21 21 20 20 20 20 20 19 19 19 19 18 18 18
1 2 2 2 2 2 3 3 1 2 3 6 11 12 8 2 2 3 5 5 5 7 12 12 10 9 8 5 4 6 8 10 13 14 12 10 10 11 11 11 12 12 11 10 10 9 10 11 11 11 12 13 13 15 15 14 13 14 14 15 18 20 18 17 18 18 19 19 18 16 16 16 17 17 18 20 20 19 19 19 19 19 19 18 16 15
2 2 1 0 1 2 3 3 1 2 3 9 11 6 3 1 4 6 5 4 6 6 7 9 10 10 8 7 9 14 17 18 16 15 13 12 12 12 12 12 12 12 11 11 10 9 9 10 10 10 10 11 11 11 10 10 11 12 11 12 14 13 13 15 16 16 16 17 16 14 12 12 13 12 13 17 17 16 16 18 18 16 14 13 13 14
1 2 1 2 2 3 2 1 3 5 4 9 7 2 1 1 6 8 6 5 5 5 5 8 10 10 10 12 17 20 21 20 18 15 14 12 11 11 11 10 10 9 8 9 9 7 8 9 10 10 10 8 7 6 4 3 4 6 6 7 7 6 10 12 12 11 11 12 11 10 10 10 10 8 6 7 9 10 12 13 13 12 10 10 10 11
2 2 3 2 2 3 3 3 3 2 2 5 6 5 3 3 6 7 7 7 6 5 6 8 9 8 11 18 23 23 21 20 19 17 15 13 10 9 9 9 8 8 8 8 8 7 8 11 11 12 12 11 9 7 5 3 2 4 6 7 7 8 10 10 9 10 11 11 11 12 13 13 11 9 7 6 6 6 7 8 9 10 10 9 9 9
1 2 3 3 1 1 3 3 2 3 5 6 6 5 3 3 4 6 7 7 7 6 6 7 7 8 15 22 24 24 22 21 20 18 16 14 11 8 8 8 7 7 7 7 7 7 9 12 12 12 13 13 11 10 8 6 5 6 10 11 11 10 9 9 9 11 12 12 11 11 11 11 10 9 9 9 8 8 8 8 9 10 10 9 9 9
2 2 3 3 2 2 1 2 2 5 6 6 6 5 4 4 4 5 6 6 6 5 5 6 7 11 18 22 23 22 21 19 18 16 14 14 12 11 9 7 6 6 6 6 6 6 7 9 11 12 13 13 12 10 10 8 7 9 12 12 12 11 11 10 10 11 12 12 11 11 10 9 9 10 10 11 11 11 11 11 10 10 11 11 11 11
1 2 3 2 2 1 2 3 2 6 6 5 5 5 6 6 5 5 5 4 3 3 4 6 9 14 18 18 18 19 18 17 16 15 13 13 13 11 10 7 6 5 5 5 6 5 5 6 8 10 11 12 12 11 9 8 9 10 11 11 10 10 10 11 11 11 12 12 11 11 10 10 10 11 11 12 12 12 12 12 12 11 11 11 10 10
3 3 2 2 3 2 0 2 3 6 5 5 5 5 6 8 7 5 5 3 3 5 8 10 11 14 16 16 17 17 17 17 15 14 13 12 11 10 9 7 6 5 5 6 7 6 5 5 6 7 8 9 10 10 9 9 9 10 10 9 9 8 8 9 10 11 11 11 11 10 9 9 10 10 10 11 11 11 10 10 10 10 10 10 10 8
4 2 1 4 4 0 3 6 7 4 3 3 5 6 6 8 8 7 6 4 4 7 11 13 13 13 16 17 17 15 15 15 14 12 11 10 9 9 7 5 4 4 6 9 10 9 8 7 6 6 6 7 7 8 8 8 9 9 9 8 8 7 6 6 7 8 9 8 8 8 8 8 8 9 9 9 9 9 8 9 9 9 9 8 8 7
4 8 8 6 4 4 8 13 12 6 6 7 8 8 8 8 8 8 7 5 5 8 11 13 14 16 17 17 15 13 12 13 12 10 9 10 9 8 5 2 3 5 8 10 10 10 10 9 8 6 6 6 6 6 5 5 6 8 8 8 7 6 5 6 6 7 6 6 6 7 6 7 8 9 8 8 8 7 6 7 8 9 9 7 6 6
Wind_Direction
167 169 197 184 191 190 192 194 191 196 182 163 133 95 142 142 118 137 140 190 163 108 121 146 120 103 212 279 325 155 214 206 185 177 181 183 185 189 191 194 196 195 192 193 197 199 200 201 196 187 185 182 178 176 177 176 176 174 174 174 174 176 176 173 168 164 159 154 152 155 158 159 158 159 162 167 170 170 167 162 157 145 133 141 152 161
132 181 226 209 198 191 196 195 185 204 200 164 138 133 144 128 116 99 122 187 181 129 174 143 124 130 178 235 268 248 234 222 197 182 183 184 184 187 188 189 191 188 187 190 191 194 198 198 193 186 187 185 179 180 182 181 179 178 178 178 177 179 182 180 176 171 165 160 157 155 156 158 157 159 163 166 168 170 170 163 156 143 130 145 153 156
341 222 235 220 194 184 204 183 174 209 203 174 142 141 160 150 122 87 128 177 208 168 168 162 159 162 177 236 263 265 243 226 204 190 186 185 183 185 184 182 183 179 180 184 187 191 195 195 191 187 190 188 182 183 183 183 183 183 183 182 181 181 183 185 183 179 172 165 157 153 155 158 157 156 156 159 164 167 169 164 161 152 138 144 148 148
245 243 242 222 175 173 215 176 173 208 186 155 148 149 174 178 161 126 156 161 230 300 156 159 174 150 128 275 274 259 245 239 212 196 191 187 185 185 184 181 179 179 178 180 184 188 192 193 190 189 192 188 184 186 185 185 188 189 188 187 185 181 181 185 188 185 178 170 162 156 157 159 158 155 151 155 165 172 174 171 168 161 150 150 155 154
238 255 263 225 158 185 210 172 159 176 194 185 182 179 171 180 177 107 141 141 79 345 129 128 97 331 188 212 246 250 241 240 224 198 191 189 188 186 184 183 182 184 182 180 183 186 188 190 190 192 192 187 186 190 191 193 194 195 193 191 189 184 181 183 185 185 182 178 171 165 167 171 171 168 164 165 170 173 176 174 168 164 163 168 171 165
253 258 257 273 214 200 195 203 184 167 189 232 211 210 186 174 152 111 134 142 120 256 208 154 152 262 206 203 221 219 201 228 243 205 190 187 189 186 184 185 183 184 187 187 187 187 188 190 191 193 193 190 190 194 197 198 199 199 194 191 191 190 186 184 182 182 184 185 182 178 180 183 183 182 178 175 175 174 173 176 173 172 175 182 180 167
255 244 201 208 233 214 195 226 218 169 155 234 223 210 182 160 140 134 148 152 150 200 218 187 171 193 207 211 216 201 184 212 241 238 197 184 186 187 187 189 183 180 185 189 189 188 188 189 192 193 193 193 194 194 196 199 200 201 195 190 191 193 192 190 185 184 187 189 191 192 192 192 192 191 185 179 179 177 173 178 183 184 184 186 185 170
227 227 199 206 220 212 206 226 215 169 153 239 223 180 164 157 150 150 153 152 133 109 127 203 158 112 204 221 207 189 192 210 223 243 213 185 184 188 190 192 186 180 183 185 187 188 188 191 194 194 194 196 197 195 194 197 200 200 197 192 194 196 195 194 190 189 191 192 195 198 200 202 201 197 189 181 181 182 180 182 188 192 192 190 187 181
191 206 213 203 209 210 219 222 186 167 182 246 122 122 135 135 130 131 123 87 78 86 142 215 213 138 235 245 181 174 198 214 211 221 220 191 185 187 192 194 188 183 185 186 187 188 191 194 196 195 195 196 197 196 194 197 199 199 198 195 195 197 197 196 192 191 195 196 197 199 202 207 210 206 197 188 187 188 189 188 190 193 193 192 188 186
240 236 228 191 188 209 229 230 178 170 202 111 95 89 86 90 90 88 72 37 39 47 207 205 198 194 264 250 162 171 205 213 208 209 212 198 188 187 192 194 188 183 185 188 189 191 193 196 197 197 196 195 196 196 195 198 199 198 199 197 197 198 197 196 193 193 196 196 197 199 201 207 212 211 204 200 196 195 196 196 195 195 194 194 192 192
259 259 259 214 205 210 219 234 189 161 142 101 96 92 79 70 64 62 54 49 40 293 266 205 198 191 312 237 190 194 205 202 198 197 202 199 193 190 191 193 190 182 184 188 189 192 195 196 197 197 197 196 195 196 197 200 200 198 199 199 199 198 197 196 194 192 193 193 197 200 201 206 214 215 211 208 203 200 201 201 199 198 197 198 198 199
277 260 256 219 219 210 190 238 177 151 139 110 100 110 91 51 30 42 23 44 114 242 287 223 193 176 271 245 213 216 207 191 193 196 195 192 193 193 191 191 191 185 184 188 189 192 193 194 195 196 198 197 195 196 199 201 201 198 199 200 200 200 199 197 195 193 192 195 199 202 204 207 215 221 217 213 209 205 205 205 202 201 201 204 204 204
297 240 231 220 223 201 155 75 70 126 134 116 120 118 94 52 41 66 265 266 209 230 267 164 172 190 251 250 228 225 211 196 200 199 194 190 189 193 193 190 190 187 186 188 189 191 191 192 194 196 197 197 197 198 200 203 201 199 201 202 202 202 200 199 198 196 196 198 201 203 204 205 213 221 219 216 213 207 208 210 209 207 206 209 209 209
318 296 283 201 231 197 153 117 117 135 202 148 141 131 118 110 108 150 210 252 258 256 249 150 166 203 268 262 225 216 208 202 204 201 197 194 190 193 196 193 191 190 188 190 190 191 192 193 195 197 197 199 200 200 202 203 201 201 202 203 203 203 202 202 201 199 200 202 204 205 206 207 212 216 217 216 212 209 209 213 216 216 214 214 216 218
223 309 251 183 224 183 154 154 159 154 165 172 131 108 147 154 156 172 192 197 183 243 105 135 168 198 220 246 232 226 214 197 198 201 197 196 194 193 196 197 195 191 189 190 192 192 193 195 196 197 198 199 201 201 202 202 200 201 203 203 203 203 203 203 202 202 203 204 205 207 209 211 213 216 217 216 214 213 212 213 217 219 219 220 222 225
164 263 246 234 221 163 160 169 150 133 138 180 67 66 194 183 152 137 160 162 138 119 127 154 210 232 203 243 278 272 221 191 191 195 191 192 194 191 194 199 199 192 188 190 192 193 195 196 197 198 198 200 201 202 201 201 201 201 202 203 203 203 204 204 203 204 205 205 206 208 209 212 214 216 218 217 217 218 216 215 217 219 220 222 224 225
253 274 277 291 271 167 158 158 150 147 145 104 125 213 229 180 125 110 74 36 81 103 180 192 251 293 289 272 286 221 190 186 185 187 186 189 189 188 191 197 201 195 189 189 192 194 195 196 197 199 199 199 201 202 201 201 203 202 202 202 203 204 205 204 204 205 206 206 206 208 209 211 213 214 216 217 218 219 220 219 219 220 220 221 224 223
216 284 297 344 334 246 154 141 147 172 141 126 193 211 202 57 82 100 93 24 47 119 236 204 232 278 273 252 289 186 185 190 186 185 186 187 186 187 190 194 199 198 192 191 193 195 196 196 197 199 200 201 201 203 202 201 203 202 202 203 202 204 205 205 205 205 205 206 207 208 209 210 213 214 214 216 217 220 222 222 221 221 219 221 223 222
165 289 293 262 3 293 130 116 128 247 150 144 189 174 129 103 100 107 123 134 147 216 263 254 254 254 221 214 204 195 197 193 188 188 186 185 187 189 190 191 194 197 195 192 192 193 195 196 197 199 201 202 203 204 203 201 201 202 203 204 203 206 206 205 206 206 206 207 208 209 209 211 213 213 213 215 215 217 221 222 222 222 221 222 223 223
146 129 289 294 340 315 48 89 158 238 173 133 139 136 124 139 154 167 169 151 149 166 228 288 302 253 231 215 183 189 199 189 184 189 189 191 191 190 190 188 189 194 195 192 190 191 193 195 198 200 202 203 204 204 203 201 202 205 207 207 205 206 207 206 207 207 207 207 209 209 210 211 212 212 213 215 215 216 219 221 223 223 223 224 226 227
100 109 249 299 341 58 140 148 176 190 164 131 115 276 265 79 134 159 171 142 124 136 178 211 289 264 249 205 173 183 193 186 183 187 192 195 193 191 190 185 186 191 192 189 188 189 191 193 195 198 202 205 207 206 205 204 204 206 209 210 209 206 206 207 207 207 207 207 208 209 209 210 211 212 213 215 217 218 220 223 225 225 224 226 228 230
121 110 187 299 349 4 242 251 203 186 164 144 162 198 185 156 131 123 191 274 110 122 167 161 214 269 268 223 179 175 182 192 189 186 187 191 191 190 188 184 184 188 188 187 188 189 190 193 195 197 199 203 207 208 207 207 208 209 209 211 211 209 207 208 207 207 207 207 207 208 208 210 211 212 213 216 217 219 221 223 225 225 224 226 227 225
139 99 88 287 293 256 266 280 243 188 141 124 176 201 148 135 125 129 179 237 110 97 130 125 190 268 272 279 212 161 177 196 192 186 182 184 184 181 180 179 179 181 182 185 189 191 191 192 194 197 199 201 206 209 210 210 211 211 209 209 211 210 209 209 209 208 206 206 207 208 208 208 211 212 213 215 216 218 220 220 222 225 226 227 229 227
55 67 33 304 299 303 299 321 357 44 85 83 338 358 122 182 139 140 175 169 134 157 137 90 276 266 281 320 33 133 160 178 185 186 179 173 171 169 170 172 171 171 174 181 188 191 192 192 195 198 201 202 204 206 209 212 214 213 210 208 209 210 209 210 210 209 208 207 207 208 207 207 208 210 213 214 216 218 217 216 223 229 229 230 232 231
24 45 50 24 356 352 341 350 4 8 41 70 306 328 318 261 101 102 101 79 107 198 144 124 233 254 276 338 44 96 116 138 175 185 179 170 165 161 161 164 169 170 170 176 184 189 193 196 199 201 202 203 204 205 207 209 212 212 211 209 208 208 210 210 210 210 209 208 208 208 208 208 208 209 212 212 214 216 214 215 224 228 227 229 228 224
80 129 96 92 80 49 19 345 327 311 327 0 333 338 343 354 94 128 104 83 177 217 131 148 221 261 289 338 45 83 112 108 152 175 179 176 169 164 161 162 169 175 175 179 185 189 194 200 204 205 203 202 205 209 210 211 213 214 212 210 210 210 209 210 210 211 209 208 209 209 209 210 210 211 212 212 213 214 210 211 220 223 223 225 224 219
96 68 68 108 135 163 184 231 256 263 17 12 346 347 357 355 0 107 111 132 192 173 173 221 206 235 287 267 106 120 141 125 139 161 174 179 172 169 168 166 169 175 181 188 193 193 194 197 203 205 205 205 209 211 212 213 216 218 216 212 211 212 211 209 210 210 210 208 209 210 210 211 212 213 214 215 215 212 208 210 218 222 222 222 221 220
100 45 39 85 101 234 203 205 287 78 84 49 11 7 7 359 13 68 109 211 171 135 225 251 188 158 265 230 156 165 160 141 155 161 171 178 176 174 173 171 172 175 181 190 197 200 199 198 201 206 208 209 211 211 212 212 214 220 221 216 213 213 211 210 210 210 210 210 210 211 212 213 215 215 215 217 217 213 211 213 217 220 223 222 223 226
113 61 38 93 349 301 300 10 35 75 81 52 37 26 14 9 27 47 11 273 154 156 233 234 166 175 268 207 146 173 164 140 147 165 171 175 175 177 176 175 177 180 184 191 197 203 204 203 203 206 208 209 210 211 211 211 214 219 222 222 222 219 213 210 210 209 209 210 212 212 212 214 217 217 216 218 218 215 215 217 218 219 221 221 223 228
108 92 122 123 55 333 349 12 40 60 54 34 29 24 18 20 32 41 30 5 13 265 259 163 127 115 307 112 118 136 146 136 131 143 161 165 168 174 175 177 181 184 186 190 196 201 203 203 203 204 206 207 209 210 210 211 213 216 220 223 227 226 219 211 207 207 209 211 211 210 210 214 216 215 214 214 212 212 216 218 217 219 220 219 222 227
88 135 168 97 59 339 333 4 53 62 55 33 20 13 12 15 23 30 25 11 5 338 332 54 96 45 356 47 80 94 115 119 118 125 139 155 164 169 170 176 184 188 189 191 195 199 202 202 202 202 204 205 205 206 209 213 214 215 220 223 223 225 223 214 205 203 206 207 205 204 210 216 217 215 214 213 209 210 216 218 216 218 221 223 226 229
72 113 108 75 75 309 309 334 353 29 47 31 16 8 4 6 19 31 29 14 354 329 344 19 58 3 341 51 71 75 85 88 90 103 119 141 160 168 170 176 184 189 194 195 193 195 200 203 204 204 206 208 208 207 211 215 215 215 220 222 219 220 223 219 211 205 204 203 200 201 209 217 218 216 216 218 216 217 222 224 222 223 226 229 231 230
80 107 116 98 101 274 297 326 339 25 41 8 346 358 354 -0 31 41 31 14 357 346 17 34 50 287 318 66 74 66 68 70 70 81 109 141 158 168 176 182 185 188 193 196 195 193 194 200 205 206 208 212 213 214 215 216 215 215 218 219 217 218 222 222 218 212 209 207 207 207 208 213 217 218 218 219 220 223 227 231 230 230 231 231 230 228
47 96 142 138 120 232 286 330 16 46 52 257 251 329 343 14 65 64 42 13 359 7 53 64 70 67 54 68 82 77 67 63 67 78 102 140 159 169 177 182 187 189 187 187 195 201 202 200 200 201 205 211 214 216 216 215 215 216 217 217 217 219 224 228 227 222 217 214 215 215 211 211 217 221 221 222 225 227 230 233 234 237 239 236 230 227
56 76 135 109 110 168 302 21 32 264 234 245 265 327 338 80 106 94 63 31 5 5 33 52 65 78 80 83 91 95 94 90 86 86 97 120 151 172 186 193 194 197 189 176 183 197 202 204 204 201 202 208 210 209 211 214 217 218 218 220 221 223 225 230 233 230 223 217 217 219 216 215 220 225 225 225 227 228 230 231 232 235 238 238 234 229
107 103 108 67 86 128 83 77 177 239 259 295 329 343 354 44 90 84 54 34 3 353 22 46 51 63 72 76 82 91 100 102 91 79 84 104 129 162 190 205 210 215 205 183 185 195 197 202 209 208 206 208 209 208 210 216 220 220 219 221 222 222 223 229 234 231 224 217 218 220 220 220 224 228 227 226 226 225 227 229 230 230 230 230 230 230
115 124 105 72 85 125 112 119 253 304 313 317 345 18 20 0 324 341 65 11 334 344 26 58 51 56 68 73 71 62 67 80 75 53 49 66 83 121 168 182 197 233 232 186 197 209 203 202 208 208 206 207 208 209 209 213 218 219 214 212 214 217 223 229 233 230 224 219 221 225 225 225 227 227 225 224 224 227 231 233 236 240 237 228 224 224
85 135 152 121 91 94 99 89 17 20 269 258 278 305 330 314 276 219 139 282 312 337 67 102 92 85 87 85 83 73 66 67 57 14 16 28 18 357 276 210 198 216 225 199 195 202 195 196 200 200 199 200 203 206 206 207 212 212 209 209 216 222 224 225 227 230 229 227 228 231 230 227 229 229 228 230 235 240 241 238 237 240 238 230 227 226
43 42 100 96 70 85 102 115 149 184 225 247 269 297 324 325 307 185 88 326 283 255 166 133 116 109 108 96 100 115 101 84 232 222 193 21 345 342 321 272 227 210 206 196 183 168 161 180 191 193 193 196 201 206 206 204 204 206 210 216 220 221 220 220 222 226 229 229 229 229 228 226 230 234 237 240 244 245 241 236 235 235 234 234 237 238
22 20 55 75 90 112 102 115 184 210 243 254 271 304 322 327 339 79 71 286 241 198 184 164 153 165 164 139 123 130 133 175 208 187 163 140 121 98 83 115 160 173 174 165 158 153 148 158 180 191 188 189 196 202 203 202 200 204 210 212 211 211 213 215 217 220 227 230 228 225 224 225 231 238 242 244 245 242 236 231 228 228 229 230 233 239
6 17 62 108 120 101 102 118 250 267 251 260 292 314 326 334 26 97 193 239 213 185 187 181 173 177 178 160 144 158 187 175 153 148 143 133 122 113 112 117 117 121 130 134 139 148 151 155 167 175 173 181 193 200 203 204 203 204 206 202 202 207 209 212 215 221 227 231 229 226 226 227 233 239 241 239 234 228 225 222 219 219 219 221 225 232
3 16 31 82 84 66 110 118 345 280 259 300 310 320 343 14 184 200 204 219 235 209 193 192 190 182 180 184 159 143 144 142 138 137 133 125 122 120 117 113 108 105 111 120 129 142 154 161 166 166 166 174 186 194 200 202 202 205 202 196 200 206 206 210 215 215 217 223 225 223 223 227 233 236 237 234 227 219 215 214 213 212 211 211 217 222
145 107 26 219 137 85 82 70 56 208 276 330 331 330 18 91 188 185 173 200 248 243 205 199 204 200 196 181 142 132 138 141 137 132 124 117 120 123 116 110 109 111 115 117 118 125 139 151 158 158 161 170 180 190 199 202 200 199 194 197 206 202 190 197 206 204 205 214 218 213 208 214 223 228 235 239 236 230 226 222 218 218 215 211 213 217
142 133 190 224 180 111 111 161 202 210 285 346 10 94 156 143 161 168 184 209 227 238 220 196 195 201 195 171 148 142 144 142 133 128 126 122 122 122 118 118 120 120 116 105 97 100 115 125 127 126 129 138 149 161 176 193 198 192 180 189 199 168 154 174 186 181 182 191 192 183 170 171 183 188 199 220 222 219 222 220 215 214 212 208 211 214
233 177 156 150 166 163 165 191 209 219 342 26 63 101 128 147 163 190 222 224 212 225 224 201 196 195 176 163 154 149 148 144 137 134 132 130 133 131 127 128 125 117 108 92 80 87 110 117 115 110 107 104 103 110 116 114 154 171 153 146 145 137 140 154 155 146 147 150 149 148 146 147 152 155 151 151 162 180 193 191 186 188 189 191 197 202
216 134 112 105 152 143 74 70 92 86 76 81 88 96 109 138 177 208 225 224 217 223 225 217 211 185 165 164 162 156 152 151 148 144 136 130 138 146 141 135 124 106 94 80 74 89 110 116 115 110 105 100 94 94 96 97 113 134 130 124 123 125 130 139 142 141 143 144 143 141 140 143 146 146 145 144 146 154 163 168 176 183 179 172 171 175
311 33 81 89 90 90 49 350 41 82 85 87 92 105 121 131 165 195 208 216 217 218 224 223 204 175 166 167 165 157 154 155 153 145 135 133 145 158 155 143 125 104 84 62 62 87 109 112 111 111 108 105 102 98 96 101 114 120 117 115 115 117 122 128 132 133 137 142 142 138 137 143 146 147 148 146 146 151 154 155 161 163 157 153 154 160
307 73 93 95 75 116 214 247 73 89 97 92 87 110 135 140 155 172 177 182 184 183 190 187 180 173 168 166 164 156 152 153 151 144 140 145 157 166 162 146 123 104 77 53 58 83 113 117 112 112 112 111 111 109 107 114 124 124 120 119 122 126 130 132 131 131 135 137 135 134 137 140 143 147 149 146 146 148 148 149 153 156 155 156 159 164
139 115 131 121 86 50 277 191 116 95 89 87 87 106 136 149 156 149 132 121 122 147 161 164 166 170 165 161 162 158 151 151 153 151 153 159 164 165 158 140 116 91 66 66 76 86 101 115 116 117 119 121 121 123 122 125 129 131 131 132 136 140 141 140 140 141 142 140 135 133 138 142 145 148 149 149 150 150 152 154 159 164 167 166 163 165
124 143 127 101 103 320 235 186 167 135 105 120 114 112 135 154 157 143 126 119 125 147 160 160 158 162 164 162 162 160 155 155 160 162 163 167 166 159 148 124 95 82 79 86 91 92 94 100 103 106 114 119 122 129 135 140 144 147 148 151 156 157 153 153 154 155 157 157 149 142 147 156 159 158 159 162 163 165 166 166 165 170 177 177 172 173
164 176 171 150 160 220 199 183 177 152 126 134 126 120 135 150 153 148 142 139 145 158 167 167 160 158 159 160 162 165 163 161 164 169 170 168 165 157 143 85 58 89 97 96 96 95 95 95 94 95 98 100 105 114 124 142 158 165 168 170 174 178 181 184 186 189 194 195 178 167 172 179 178 175 176 177 180 187 188 180 175 176 181 186 191 198
Height
1501 1506 1509 1509 1510 1510 1509 1508 1509 1509 1511 1515 1519 1523 1525 1529 1531 1528 1526 1523 1521 1527 1533 1533 1535 1539 1539 1539 1536 1536 1538 1538 1536 1535 1536 1537 1538 1539 1541 1542 1544 1545 1546 1548 1550 1552 1553 1555 1556 1558 1560 1561 1562 1562 1563 1564 1565 1566 1567 1567 1568 1569 1570 1571 1572 1573 1575 1575 1576 1578 1579 1580 1582 1583 1585 1586 1587 1588 1589 1590 1591 1592 1593 1593 1594 1594
1502 1508 1508 1505 1505 1505 1505 1506 1507 1509 1511 1513 1519 1525 1527 1529 1531 1529 1527 1524 1520 1527 1534 1533 1536 1539 1540 1539 1536 1535 1537 1537 1536 1534 1535 1536 1537 1538 1539 1541 1543 1544 1546 1547 1549 1551 1553 1554 1556 1558 1560 1560 1561 1562 1563 1564 1565 1566 1567 1568 1569 1569 1570 1571 1573 1574 1575 1576 1577 1578 1579 1581 1582 1584 1585 1586 1587 1588 1589 1591 1592 1593 1593 1593 1594 1595
1506 1507 1504 1501 1502 1503 1504 1505 1507 1509 1510 1514 1519 1525 1529 1529 1529 1530 1529 1526 1525 1529 1534 1534 1535 1538 1538 1538 1537 1535 1535 1535 1534 1533 1533 1534 1535 1537 1538 1540 1542 1543 1545 1547 1549 1551 1552 1554 1556 1557 1559 1560 1560 1561 1563 1564 1565 1566 1567 1568 1569 1570 1571 1572 1573 1574 1575 1577 1578 1580 1580 1581 1583 1584 1585 1587 1588 1589 1590 1591 1592 1593 1594 1594 1595 1596
1511 1505 1499 1499 1501 1503 1505 1507 1507 1509 1510 1514 1519 1524 1527 1526 1526 1531 1532 1530 1529 1529 1532 1534 1535 1537 1538 1537 1536 1535 1534 1533 1533 1532 1532 1533 1534 1534 1536 1538 1540 1542 1543 1545 1548 1550 1552 1554 1555 1556 1558 1559 1560 1561 1562 1564 1565 1566 1567 1568 1569 1570 1571 1572 1573 1575 1576 1577 1579 1580 1582 1583 1584 1585 1586 1587 1588 1589 1590 1591 1593 1594 1595 1595 1596 1597
1508 1500 1496 1499 1501 1503 1506 1507 1508 1510 1513 1514 1515 1517 1521 1522 1521 1523 1527 1530 1531 1531 1530 1533 1542 1542 1538 1539 1537 1533 1533 1532 1531 1532 1532 1533 1533 1534 1535 1537 1538 1540 1542 1544 1547 1549 1551 1553 1554 1556 1557 1558 1560 1561 1562 1563 1564 1565 1567 1568 1569 1570 1572 1573 1574 1575 1576 1577 1579 1580 1582 1583 1584 1585 1586 1587 1588 1589 1590 1591 1593 1594 1595 1596 1596 1597
1504 1498 1497 1500 1502 1503 1506 1507 1507 1509 1514 1516 1513 1509 1513 1517 1517 1520 1525 1529 1537 1541 1531 1531 1549 1551 1538 1537 1537 1532 1532 1531 1530 1531 1530 1531 1533 1534 1535 1536 1537 1539 1541 1543 1545 1548 1549 1551 1553 1555 1556 1557 1559 1560 1561 1563 1564 1565 1567 1568 1569 1570 1571 1573 1574 1575 1576 1577 1578 1579 1581 1581 1582 1584 1585 1586 1587 1589 1590 1591 1593 1594 1595 1596 1597 1598
1499 1495 1496 1499 1501 1503 1506 1508 1506 1505 1514 1518 1508 1502 1507 1513 1517 1521 1525 1530 1538 1541 1529 1526 1543 1550 1541 1536 1534 1532 1533 1531 1530 1530 1529 1529 1531 1532 1534 1535 1537 1537 1539 1542 1544 1547 1548 1550 1552 1554 1555 1556 1558 1559 1561 1562 1564 1565 1567 1568 1569 1570 1571 1572 1573 1574 1576 1576 1578 1579 1580 1581 1582 1583 1585 1586 1588 1589 1591 1592 1593 1595 1595 1596 1597 1598
1495 1496 1497 1498 1500 1503 1506 1508 1504 1502 1512 1512 1498 1498 1506 1510 1517 1520 1522 1529 1532 1532 1532 1529 1534 1544 1545 1535 1528 1530 1533 1532 1531 1530 1529 1528 1529 1531 1532 1534 1536 1536 1538 1541 1543 1545 1547 1549 1550 1552 1554 1556 1557 1559 1560 1562 1563 1565 1566 1567 1569 1570 1571 1572 1573 1574 1575 1576 1578 1579 1580 1581 1582 1583 1585 1586 1588 1589 1591 1592 1593 1595 1595 1596 1597 1597
1493 1496 1497 1497 1500 1502 1501 1500 1499 1499 1505 1503 1495 1498 1504 1508 1516 1519 1524 1529 1528 1533 1542 1538 1534 1543 1545 1531 1524 1529 1533 1534 1531 1528 1527 1527 1527 1529 1531 1532 1534 1535 1537 1539 1541 1544 1545 1547 1549 1551 1553 1555 1557 1558 1559 1561 1563 1564 1566 1568 1569 1570 1571 1572 1573 1574 1575 1576 1578 1579 1580 1581 1582 1583 1585 1586 1587 1588 1590 1592 1593 1594 1595 1596 1597 1597
1493 1493 1493 1494 1498 1498 1494 1491 1492 1497 1501 1498 1495 1501 1507 1512 1517 1522 1530 1534 1534 1542 1547 1539 1535 1544 1544 1532 1528 1531 1531 1529 1527 1525 1525 1525 1525 1527 1528 1531 1533 1535 1536 1537 1539 1542 1544 1546 1548 1550 1552 1554 1556 1557 1559 1560 1562 1564 1566 1567 1568 1569 1571 1572 1573 1574 1575 1576 1578 1579 1580 1581 1582 1583 1584 1585 1586 1588 1589 1590 1592 1593 1594 1595 1596 1597
1490 1489 1490 1490 1491 1490 1487 1487 1489 1493 1497 1496 1499 1506 1513 1519 1523 1528 1534 1538 1546 1550 1544 1535 1532 1540 1544 1533 1526 1524 1519 1518 1521 1523 1523 1522 1524 1525 1527 1529 1531 1534 1535 1537 1539 1541 1543 1545 1547 1550 1552 1553 1555 1557 1558 1560 1561 1563 1564 1566 1568 1569 1570 1571 1572 1573 1575 1576 1577 1578 1579 1581 1582 1583 1584 1585 1586 1587 1588 1590 1591 1593 1594 1595 1596 1597
1489 1489 1488 1484 1483 1483 1486 1489 1489 1490 1492 1495 1502 1508 1519 1530 1533 1538 1542 1545 1554 1552 1540 1533 1530 1539 1547 1531 1517 1514 1509 1511 1515 1517 1519 1519 1521 1523 1525 1527 1529 1532 1534 1536 1538 1540 1542 1545 1547 1549 1551 1552 1554 1555 1557 1559 1560 1562 1563 1565 1567 1568 1570 1571 1572 1573 1574 1576 1577 1578 1579 1580 1582 1583 1584 1585 1586 1587 1588 1590 1591 1592 1594 1595 1596 1597
1488 1486 1483 1480 1478 1479 1485 1492 1495 1495 1494 1498 1505 1512 1528 1547 1550 1553 1557 1553 1553 1546 1535 1532 1533 1541 1540 1521 1510 1510 1507 1508 1509 1509 1513 1515 1518 1521 1523 1526 1527 1530 1532 1534 1537 1539 1541 1543 1545 1548 1549 1551 1553 1554 1556 1557 1559 1561 1562 1564 1566 1567 1569 1570 1572 1573 1574 1575 1577 1578 1579 1580 1582 1583 1584 1585 1585 1587 1588 1589 1591 1592 1593 1594 1595 1596
1492 1485 1480 1481 1480 1475 1481 1493 1502 1504 1501 1501 1505 1511 1528 1548 1556 1562 1564 1554 1547 1541 1531 1530 1537 1542 1532 1513 1505 1505 1503 1504 1505 1507 1511 1512 1515 1519 1521 1524 1526 1528 1530 1532 1535 1537 1539 1541 1543 1546 1548 1550 1552 1553 1555 1556 1558 1560 1561 1563 1565 1566 1568 1570 1571 1573 1574 1575 1576 1578 1579 1580 1581 1582 1583 1584 1585 1586 1588 1589 1590 1591 1592 1593 1594 1595
1503 1496 1483 1480 1479 1473 1476 1485 1490 1496 1501 1498 1498 1505 1516 1525 1533 1545 1551 1544 1542 1541 1535 1534 1539 1537 1526 1511 1502 1499 1499 1501 1503 1506 1509 1511 1514 1517 1520 1523 1524 1526 1528 1530 1533 1535 1537 1539 1542 1544 1546 1548 1550 1552 1554 1555 1557 1559 1560 1562 1564 1565 1567 1569 1570 1572 1573 1574 1576 1577 1578 1580 1581 1582 1583 1584 1585 1586 1587 1588 1589 1590 1591 1592 1593 1594
1503 1498 1479 1473 1473 1471 1475 1477 1476 1488 1500 1499 1499 1509 1511 1504 1505 1520 1531 1529 1533 1542 1541 1537 1533 1521 1512 1505 1498 1498 1499 1498 1501 1504 1506 1510 1512 1515 1519 1521 1523 1525 1526 1528 1531 1533 1535 1537 1540 1542 1545 1547 1549 1551 1552 1554 1555 1557 1559 1561 1563 1564 1566 1568 1569 1571 1572 1574 1575 1576 1578 1579 1580 1582 1583 1584 1585 1586 1587 1588 1589 1590 1591 1592 1593 1594
1500 1493 1475 1472 1471 1468 1472 1473 1473 1482 1493 1500 1507 1509 1500 1491 1494 1513 1528 1526 1528 1540 1539 1533 1528 1516 1509 1505 1498 1498 1499 1498 1500 1502 1503 1506 1509 1512 1515 1517 1521 1523 1524 1526 1528 1530 1533 1535 1538 1541 1543 1545 1547 1549 1551 1552 1554 1556 1558 1560 1562 1564 1565 1567 1568 1570 1571 1573 1574 1576 1577 1579 1580 1581 1582 1583 1584 1586 1587 1588 1589 1590 1591 1592 1593 1594
1496 1492 1477 1474 1476 1471 1469 1472 1473 1473 1479 1496 1507 1499 1491 1493 1495 1506 1527 1535 1535 1539 1535 1532 1530 1522 1517 1512 1502 1500 1501 1499 1500 1500 1502 1505 1506 1508 1510 1513 1518 1520 1523 1525 1526 1529 1531 1533 1537 1539 1541 1544 1546 1548 1550 1551 1553 1555 1557 1559 1561 1562 1564 1566 1567 1569 1571 1572 1573 1575 1576 1577 1579 1580 1581 1583 1584 1585 1586 1587 1588 1589 1590 1591 1593 1594
1491 1495 1484 1473 1477 1475 1469 1475 1484 1479 1474 1483 1489 1484 1488 1503 1506 1507 1523 1534 1537 1539 1535 1531 1529 1522 1515 1510 1503 1501 1500 1498 1499 1499 1500 1502 1503 1505 1507 1510 1515 1518 1521 1523 1524 1527 1530 1532 1535 1537 1540 1542 1544 1547 1549 1551 1553 1554 1557 1558 1560 1562 1563 1565 1566 1568 1570 1571 1572 1574 1575 1577 1578 1579 1581 1582 1583 1584 1585 1586 1587 1589 1590 1591 1592 1593
1487 1497 1492 1475 1472 1476 1474 1480 1490 1487 1478 1477 1482 1483 1485 1494 1501 1505 1511 1514 1521 1532 1532 1528 1527 1517 1503 1497 1495 1496 1495 1494 1497 1497 1497 1498 1499 1501 1504 1507 1511 1515 1518 1521 1523 1526 1528 1531 1534 1536 1539 1541 1543 1546 1548 1550 1552 1553 1556 1557 1559 1561 1562 1564 1565 1567 1568 1570 1571 1573 1574 1576 1577 1578 1580 1581 1582 1583 1584 1586 1587 1588 1590 1591 1592 1593
1484 1493 1496 1482 1473 1478 1481 1482 1485 1485 1482 1482 1487 1489 1488 1489 1492 1497 1502 1502 1506 1520 1528 1529 1525 1507 1491 1488 1489 1489 1491 1490 1492 1494 1495 1496 1498 1501 1503 1505 1508 1512 1516 1519 1521 1524 1527 1530 1533 1535 1538 1540 1542 1545 1547 1549 1551 1552 1554 1556 1557 1560 1561 1562 1564 1565 1567 1569 1570 1572 1573 1575 1576 1577 1579 1580 1581 1582 1583 1585 1586 1588 1590 1592 1593 1594
1484 1490 1494 1488 1482 1484 1482 1477 1476 1477 1477 1482 1486 1487 1487 1489 1493 1501 1509 1505 1501 1508 1517 1523 1519 1500 1486 1487 1486 1486 1488 1487 1488 1491 1493 1495 1498 1501 1504 1505 1507 1510 1514 1517 1519 1522 1526 1528 1531 1534 1537 1540 1542 1543 1546 1548 1550 1551 1553 1555 1556 1558 1560 1561 1563 1564 1566 1568 1569 1571 1572 1574 1575 1576 1578 1579 1580 1581 1582 1584 1586 1588 1591 1592 1593 1593
1482 1487 1491 1490 1487 1484 1480 1475 1474 1474 1473 1478 1483 1482 1483 1486 1488 1499 1509 1505 1502 1507 1509 1514 1514 1499 1488 1487 1485 1486 1488 1487 1489 1491 1492 1496 1498 1500 1503 1504 1507 1509 1512 1515 1518 1522 1525 1527 1530 1533 1536 1539 1541 1542 1545 1547 1548 1550 1552 1553 1555 1556 1558 1560 1562 1563 1565 1567 1568 1569 1571 1573 1574 1575 1577 1577 1579 1580 1582 1584 1586 1588 1589 1590 1591 1591
1482 1490 1494 1492 1487 1481 1477 1473 1472 1472 1476 1483 1485 1482 1484 1486 1483 1488 1494 1494 1501 1507 1506 1513 1515 1499 1488 1488 1486 1487 1488 1488 1490 1491 1493 1496 1498 1500 1502 1504 1506 1508 1510 1514 1517 1521 1525 1526 1529 1531 1534 1537 1539 1542 1544 1546 1548 1550 1551 1552 1554 1555 1557 1559 1561 1562 1564 1565 1567 1568 1570 1571 1573 1574 1575 1576 1578 1579 1581 1584 1585 1586 1587 1589 1590 1592
1487 1497 1500 1500 1501 1497 1492 1489 1484 1480 1482 1488 1489 1485 1484 1483 1482 1485 1488 1491 1500 1504 1503 1511 1511 1496 1489 1489 1487 1488 1489 1489 1491 1492 1493 1496 1498 1500 1502 1504 1506 1508 1510 1513 1516 1519 1523 1525 1527 1530 1533 1535 1537 1539 1542 1544 1547 1549 1550 1552 1552 1554 1556 1557 1559 1561 1563 1564 1566 1567 1569 1570 1571 1572 1573 1575 1576 1578 1580 1583 1583 1584 1586 1588 1589 1590
1490 1499 1500 1506 1518 1521 1518 1513 1503 1495 1490 1489 1490 1490 1487 1484 1483 1484 1489 1496 1502 1504 1503 1503 1499 1492 1491 1492 1490 1490 1490 1490 1492 1493 1495 1496 1498 1500 1502 1504 1506 1507 1510 1513 1515 1518 1521 1524 1527 1528 1531 1533 1535 1537 1540 1543 1547 1548 1549 1550 1552 1553 1554 1556 1558 1560 1561 1563 1564 1566 1568 1569 1570 1571 1572 1574 1575 1577 1579 1581 1581 1582 1584 1586 1587 1589
1491 1499 1500 1505 1515 1517 1514 1508 1499 1496 1497 1497 1496 1495 1491 1488 1485 1483 1490 1496 1497 1501 1503 1496 1490 1490 1491 1492 1493 1493 1492 1492 1493 1494 1495 1496 1498 1501 1502 1504 1505 1508 1511 1513 1516 1518 1520 1523 1526 1528 1530 1532 1534 1537 1539 1541 1545 1548 1549 1549 1550 1552 1553 1554 1556 1558 1560 1562 1563 1565 1566 1568 1569 1570 1571 1573 1574 1576 1578 1579 1580 1581 1582 1584 1585 1586
1493 1504 1506 1505 1507 1506 1501 1498 1494 1494 1500 1503 1502 1499 1494 1492 1489 1486 1490 1491 1490 1498 1502 1492 1488 1490 1488 1490 1495 1494 1492 1493 1493 1494 1495 1497 1498 1501 1503 1505 1506 1508 1510 1512 1515 1517 1519 1521 1524 1526 1529 1530 1533 1536 1538 1540 1543 1547 1548 1548 1549 1550 1551 1553 1554 1556 1559 1560 1562 1564 1565 1567 1568 1569 1571 1572 1574 1576 1577 1577 1578 1580 1581 1582 1583 1584
1494 1507 1509 1506 1508 1505 1498 1497 1495 1495 1499 1500 1501 1501 1498 1495 1494 1493 1495 1494 1491 1493 1491 1485 1488 1491 1489 1491 1494 1492 1492 1493 1494 1495 1497 1497 1499 1501 1503 1505 1507 1508 1509 1511 1514 1516 1518 1520 1522 1524 1527 1529 1531 1533 1536 1538 1541 1545 1548 1548 1549 1549 1550 1551 1552 1554 1557 1559 1561 1563 1565 1567 1568 1569 1570 1571 1573 1574 1575 1576 1577 1578 1580 1581 1582 1583
1494 1506 1507 1504 1506 1504 1499 1499 1496 1495 1498 1498 1499 1501 1499 1498 1498 1497 1498 1497 1493 1492 1489 1488 1491 1493 1492 1493 1493 1492 1493 1494 1495 1497 1498 1499 1501 1502 1503 1506 1507 1509 1510 1511 1514 1516 1518 1520 1521 1524 1526 1527 1529 1531 1534 1537 1539 1542 1545 1546 1548 1549 1549 1549 1550 1552 1555 1558 1560 1563 1565 1566 1567 1569 1570 1570 1571 1573 1573 1575 1576 1577 1578 1579 1580 1581
1492 1503 1504 1501 1505 1506 1501 1500 1498 1497 1500 1501 1500 1500 1499 1498 1500 1500 1501 1501 1498 1499 1498 1494 1493 1496 1497 1495 1494 1495 1495 1495 1497 1499 1500 1501 1503 1503 1505 1506 1508 1510 1511 1512 1514 1516 1517 1519 1521 1523 1525 1527 1529 1530 1532 1535 1537 1540 1542 1543 1545 1547 1548 1548 1548 1550 1553 1555 1558 1560 1563 1565 1566 1568 1569 1570 1571 1572 1572 1573 1574 1576 1577 1578 1579 1580
1490 1500 1502 1502 1511 1512 1503 1501 1502 1497 1497 1502 1503 1504 1504 1504 1505 1505 1506 1507 1506 1505 1502 1499 1501 1503 1500 1497 1496 1498 1498 1499 1501 1502 1502 1504 1504 1505 1507 1507 1508 1510 1511 1513 1515 1516 1517 1518 1520 1522 1524 1527 1529 1530 1531 1533 1535 1538 1540 1542 1543 1544 1546 1547 1547 1549 1551 1553 1555 1557 1559 1562 1564 1566 1567 1568 1570 1571 1571 1572 1573 1574 1576 1576 1578 1579
1492 1498 1500 1504 1514 1514 1505 1505 1505 1499 1503 1512 1511 1508 1509 1509 1508 1508 1507 1508 1507 1505 1504 1505 1507 1505 1500 1497 1499 1500 1501 1503 1504 1505 1506 1506 1506 1508 1508 1508 1509 1510 1511 1513 1515 1517 1518 1519 1520 1523 1525 1527 1528 1530 1531 1532 1533 1536 1538 1540 1541 1543 1545 1547 1547 1548 1550 1552 1554 1555 1556 1559 1561 1563 1565 1566 1568 1569 1570 1571 1572 1573 1574 1575 1576 1577
1493 1496 1498 1502 1510 1513 1508 1506 1505 1509 1519 1520 1510 1505 1508 1508 1509 1511 1513 1512 1509 1506 1506 1506 1505 1502 1500 1500 1501 1502 1504 1506 1507 1507 1508 1508 1509 1509 1510 1510 1511 1511 1511 1513 1515 1517 1518 1518 1519 1521 1524 1526 1528 1529 1531 1532 1535 1537 1537 1539 1541 1543 1544 1546 1548 1549 1548 1549 1552 1553 1554 1556 1558 1560 1562 1564 1565 1566 1568 1569 1571 1572 1573 1574 1575 1576
1494 1496 1499 1500 1505 1511 1511 1510 1516 1523 1522 1512 1503 1503 1505 1505 1507 1510 1513 1514 1513 1510 1509 1507 1505 1503 1503 1503 1502 1503 1505 1507 1508 1509 1510 1510 1510 1510 1511 1511 1511 1512 1512 1513 1515 1516 1516 1517 1518 1519 1520 1523 1526 1529 1531 1533 1535 1537 1537 1538 1540 1542 1542 1544 1547 1550 1549 1548 1550 1552 1553 1554 1556 1558 1561 1562 1563 1564 1565 1567 1569 1571 1572 1573 1574 1574
1494 1496 1499 1501 1505 1511 1515 1520 1525 1523 1513 1504 1504 1505 1503 1505 1508 1509 1512 1516 1517 1515 1511 1509 1508 1506 1506 1507 1507 1507 1508 1507 1508 1510 1512 1512 1512 1512 1512 1512 1511 1512 1512 1513 1514 1515 1515 1516 1517 1518 1519 1521 1524 1527 1529 1531 1533 1535 1536 1537 1538 1540 1541 1542 1545 1549 1548 1547 1548 1550 1552 1552 1554 1557 1559 1560 1560 1561 1563 1564 1566 1568 1570 1572 1573 1573
1494 1496 1498 1502 1508 1512 1519 1524 1522 1519 1515 1510 1507 1507 1508 1509 1510 1511 1516 1519 1517 1515 1512 1510 1509 1508 1507 1509 1510 1512 1512 1510 1511 1514 1515 1515 1515 1514 1514 1513 1513 1513 1513 1513 1514 1514 1515 1517 1516 1517 1518 1520 1522 1525 1526 1529 1532 1533 1534 1535 1537 1539 1540 1540 1543 1546 1546 1546 1547 1549 1549 1551 1552 1554 1555 1556 1558 1559 1560 1562 1563 1565 1568 1571 1573 1572
1493 1494 1495 1501 1509 1513 1519 1525 1527 1528 1526 1518 1510 1509 1509 1510 1509 1510 1514 1518 1515 1513 1512 1509 1508 1508 1508 1509 1511 1512 1512 1513 1517 1518 1517 1517 1518 1517 1516 1516 1515 1515 1514 1514 1514 1514 1515 1516 1515 1515 1517 1520 1522 1523 1524 1527 1530 1531 1532 1534 1536 1538 1538 1539 1541 1543 1544 1545 1546 1548 1548 1550 1551 1551 1553 1556 1558 1558 1559 1560 1561 1562 1564 1568 1572 1573
1494 1496 1495 1499 1509 1513 1516 1523 1529 1530 1525 1517 1512 1509 1508 1508 1507 1508 1515 1519 1515 1512 1511 1508 1508 1509 1508 1510 1511 1510 1510 1513 1515 1515 1515 1516 1518 1517 1517 1517 1516 1516 1516 1516 1516 1516 1516 1516 1516 1516 1518 1520 1521 1521 1522 1525 1527 1529 1530 1532 1534 1536 1537 1538 1540 1542 1543 1545 1546 1547 1548 1549 1549 1550 1553 1555 1556 1556 1557 1558 1559 1560 1562 1565 1568 1570
1496 1499 1499 1502 1510 1515 1517 1522 1526 1523 1518 1514 1511 1508 1507 1506 1504 1511 1524 1523 1513 1510 1511 1508 1507 1508 1509 1510 1511 1510 1510 1510 1511 1512 1514 1516 1517 1517 1518 1518 1517 1517 1517 1517 1518 1517 1517 1517 1518 1518 1519 1520 1520 1520 1522 1524 1525 1526 1527 1529 1533 1535 1535 1536 1538 1541 1543 1544 1544 1545 1546 1547 1548 1549 1551 1552 1553 1553 1554 1555 1557 1558 1559 1562 1564 1566
1505 1505 1507 1510 1513 1516 1518 1523 1526 1521 1515 1512 1510 1507 1506 1505 1508 1517 1524 1516 1508 1510 1511 1508 1507 1508 1508 1510 1511 1510 1510 1510 1510 1512 1515 1516 1517 1518 1519 1519 1519 1518 1518 1519 1519 1519 1519 1518 1519 1519 1520 1520 1521 1521 1522 1523 1524 1525 1527 1530 1533 1534 1533 1534 1538 1540 1542 1542 1543 1544 1545 1547 1548 1549 1549 1550 1550 1550 1551 1553 1554 1556 1557 1559 1561 1562
1511 1511 1513 1515 1517 1519 1520 1523 1527 1523 1515 1510 1509 1507 1506 1508 1513 1515 1512 1506 1506 1509 1509 1509 1510 1509 1508 1510 1510 1510 1511 1512 1513 1515 1516 1517 1518 1519 1520 1520 1520 1520 1520 1520 1520 1520 1520 1520 1519 1520 1520 1521 1521 1522 1523 1524 1525 1526 1527 1530 1532 1532 1532 1534 1537 1539 1540 1541 1542 1544 1545 1547 1548 1548 1548 1548 1547 1548 1549 1550 1552 1553 1554 1556 1558 1559
1510 1513 1518 1519 1519 1521 1523 1524 1525 1523 1515 1510 1508 1507 1507 1509 1511 1509 1506 1505 1506 1506 1508 1510 1510 1509 1510 1510 1510 1511 1512 1513 1515 1517 1518 1519 1520 1521 1522 1522 1522 1522 1522 1522 1522 1522 1522 1522 1521 1521 1521 1522 1522 1523 1524 1525 1525 1526 1527 1529 1530 1530 1532 1535 1536 1537 1539 1540 1541 1542 1544 1546 1547 1547 1547 1546 1546 1547 1548 1550 1551 1551 1552 1554 1556 1557
1509 1512 1517 1518 1517 1518 1520 1520 1519 1517 1514 1511 1509 1508 1508 1508 1507 1506 1506 1506 1505 1506 1508 1509 1509 1509 1510 1510 1511 1512 1513 1514 1517 1520 1522 1523 1523 1524 1525 1524 1524 1524 1524 1524 1525 1525 1524 1524 1523 1523 1523 1523 1524 1524 1525 1526 1526 1526 1527 1529 1529 1531 1532 1534 1535 1536 1538 1540 1541 1542 1543 1545 1546 1547 1547 1546 1546 1547 1548 1549 1550 1551 1552 1554 1555 1556
1510 1509 1510 1512 1515 1515 1514 1514 1514 1513 1512 1512 1510 1509 1509 1508 1507 1507 1507 1507 1506 1507 1507 1508 1509 1509 1510 1510 1512 1513 1514 1515 1517 1520 1522 1524 1526 1526 1527 1526 1526 1526 1526 1526 1527 1527 1527 1526 1525 1525 1525 1525 1525 1526 1526 1527 1527 1528 1529 1530 1531 1532 1533 1534 1536 1537 1539 1540 1541 1542 1543 1544 1545 1546 1547 1547 1548 1549 1550 1551 1551 1552 1554 1555 1556 1557
1509 1507 1507 1511 1514 1514 1512 1512 1513 1513 1513 1512 1511 1511 1510 1509 1508 1508 1508 1508 1508 1508 1507 1509 1510 1510 1511 1512 1512 1513 1515 1517 1518 1520 1520 1521 1525 1528 1528 1528 1528 1527 1527 1528 1528 1529 1529 1529 1528 1527 1527 1527 1527 1528 1528 1529 1530 1530 1531 1532 1533 1534 1535 1537 1538 1538 1539 1540 1542 1543 1543 1544 1545 1546 1547 1548 1549 1551 1552 1552 1553 1554 1555 1556 1556 1557
1509 1508 1509 1512 1514 1515 1515 1514 1513 1513 1513 1513 1512 1512 1511 1510 1510 1509 1509 1509 1509 1509 1509 1510 1510 1511 1513 1513 1514 1515 1517 1519 1520 1521 1520 1521 1525 1528 1529 1529 1529 1528 1529 1529 1530 1531 1531 1531 1530 1530 1529 1529 1530 1530 1531 1532 1532 1533 1533 1534 1535 1537 1538 1539 1539 1539 1540 1541 1542 1543 1544 1544 1545 1546 1548 1549 1550 1552 1553 1554 1555 1555 1556 1557 1558 1558
1510 1509 1511 1514 1515 1516 1516 1514 1513 1513 1514 1513 1513 1513 1512 1511 1511 1510 1510 1510 1510 1510 1510 1511 1512 1513 1514 1515 1517 1518 1519 1521 1522 1523 1523 1525 1527 1529 1530 1530 1529 1529 1530 1531 1531 1532 1533 1533 1533 1532 1532 1532 1532 1532 1533 1534 1534 1535 1536 1537 1538 1539 1540 1541 1541 1541 1541 1542 1543 1544 1545 1545 1546 1547 1549 1550 1551 1552 1554 1555 1556 1557 1558 1559 1559 1560
1509 1510 1512 1514 1516 1517 1516 1514 1513 1514 1515 1514 1514 1514 1513 1513 1512 1512 1512 1512 1512 1512 1512 1513 1514 1515 1516 1518 1519 1519 1520 1522 1523 1524 1526 1528 1529 1530 1530 1530 1530 1531 1532 1532 1533 1533 1534 1534 1534 1534 1534 1534 1534 1535 1535 1536 1537 1537 1538 1539 1540 1541 1542 1542 1543 1543 1544 1544 1544 1545 1546 1547 1548 1549 1550 1551 1552 1553 1555 1556 1557 1558 1559 1560 1561 1561
1509 1511 1513 1515 1518 1518 1516 1513 1513 1514 1515 1515 1515 1514 1514 1514 1514 1514 1514 1513 1513 1514 1515 1515 1517 1518 1519 1520 1521 1521 1522 1523 1525 1526 1528 1529 1530 1531 1531 1531 1531 1532 1532 1533 1534 1535 1535 1535 1536 1536 1536 1536 1536 1537 1537 1538 1538 1539 1540 1540 1541 1542 1543 1544 1544 1545 1545 1546 1546 1547 1548 1549 1550 1551 1552 1553 1554 1555 1556 1557 1557 1558 1559 1560 1561 1561
1507 1509 1509 1511 1514 1513 1511 1511 1512 1512 1513 1515 1515 1515 1515 1515 1515 1515 1515 1515 1516 1517 1517 1518 1519 1520 1521 1522 1523 1524 1524 1525 1527 1528 1529 1530 1531 1532 1532 1532 1533 1533 1534 1535 1535 1536 1536 1536 1537 1537 1537 1537 1538 1538 1539 1539 1540 1541 1541 1542 1542 1543 1544 1544 1545 1546 1547 1547 1548 1548 1549 1550 1551 1552 1553 1554 1555 1556 1557 1557 1558 1559 1560 1560 1561 1561